Location: Mexico
(19.4000°N, 99.1500°W)
Time: 11:24:31
(UTC-06:00)

ISS - Pass Details

Date: 14 January 2020
Orbit: 415 x 422 km, 51.6° (Epoch: 23 January)

Event Time Altitude Azimuth Distance (km) Brightness Sun altitude
Rises 20:33:09 0° 235° (SW) 2,356 1.0 -31.2°
Reaches altitude 10° 20:35:22 10° 246° (WSW) 1,493 -0.1 -31.7°
Enters shadow 20:35:38 12° 248° (WSW) 1,394 -0.3 -31.7°
